Regional Weather Roundup
Issued by NWS

Home | Current Version | Previous Version | Text Only | Print | Product List | Glossary On
Versions: 1 2 3 4 5 6 7 8 9 10 11 12 13 14 15 16 17 18 19 20 21 22 23 24 25 26 27 28 29 30 31 32 33 34 35 36 37 38 39 40 41 42 43 44 45 46 47 48 49 50
000
ASUS43 KMPX 261110
RWRMN
WEATHER ROUNDUP FOR MINNESOTA
NATIONAL WEATHER SERVICE TWIN CITIES/CHANHASSEN MN
600 AM CDT MON JUN 26 2017


NOTE: "FAIR" INDICATES FEW OR NO CLOUDS BELOW 12,000 FEET WITH NO
SIGNIFICANT WEATHER AND/OR OBSTRUCTIONS TO VISIBILITY. N/A MEANS
CURRENT SKY AND/OR WEATHER CONDITIONS ARE NOT AVAILABLE.

MNZ060>063-068>070-261200-
   Twin Cities Metro

CITY           SKY/WX    TMP DP  RH WIND       PRES   REMARKS
TWIN CITIES    CLEAR     51  43  74 NW6       30.16S
ST PAUL        CLEAR     48  45  89 NW5       30.17R
BLAINE         CLEAR     48  45  87 NW5       30.16S
LAKEVILLE      CLEAR     48  45  87 W5        30.17R
EDEN PRAIRIE   PTCLDY    53  44  71 NW8       30.16R
SOUTH ST PAUL  CLEAR     49  44  81 CALM      30.16S
LAKE ELMO      FAIR      46  45  93 NW3       30.17R
$$
MNZ001>005-007-008-013>017-022>024-027-028-261200-
   Northwest Minnesota

CITY           SKY/WX    TMP DP  RH WIND       PRES   REMARKS
BEMIDJI        CLEAR     41  39  95 W5        30.18R
HALLOCK        PTCLDY    39  37  93 NW3       30.20R
ROSEAU         CLEAR     46  41  81 W6        30.17S
WARROAD        CLEAR     43  39  87 W6        30.16F
THIEF RVR FALL CLEAR     44  42  93 NW7       30.21R
CROOKSTON      CLEAR     43  39  87 CALM      30.21S
FOSSTON        CLEAR     37  36  93 CALM      30.21R
DETROIT LAKES  PTCLDY    45  43  93 CALM      30.22R
MOORHEAD       CLEAR     45  39  81 CALM      30.23R
PARK RAPIDS    CLEAR     39  36  89 W5        30.19R
MAHNOMEN       FAIR      42  40  95 CALM      30.21S
$$
MNZ006-009>011-018-025>026-261200-
   North Central Minnesota

CITY           SKY/WX    TMP DP  RH WIND       PRES   REMARKS
BAUDETTE       MOCLDY    46  44  93 W5        30.15R
FLAG ISLAND    MOCLDY    48  45  87 NW10      30.13S
INTL FALLS     PTCLDY    43  41  93 W5        30.12R
WASKISH        CLEAR     50  45  81 NW7       30.16R
BIG FORK         N/A     39  37  93 CALM      30.15R FOG
LONGVILLE      CLEAR     45  45 100 W5        30.16S
GRAND RAPIDS   CLEAR     46  43  89 NW5       30.17R
CRANE LAKE     CLEAR     34  34 100 CALM      30.13S
ORR            CLEAR     45  43  93 NW6       30.10S
COOK           CLEAR     39  39 100 CALM      30.12R
WALKER         FAIR      42  40  93 NW6       30.17S
$$
MNZ012-019>021-037-261200-
   Northeast Minnesota

CITY           SKY/WX    TMP DP  RH WIND       PRES   REMARKS
DULUTH         PTCLDY    44  43  96 NW9       30.11R
ELY            CLEAR     45  43  93 CALM      30.09S
HIBBING        CLEAR     36  36 100 CALM      30.12S
EVELETH        CLEAR     46  40  82 NW8       30.12S
DULUTH HARBOR  CLOUDY    52  46  82 W7        30.12R
TWO HARBORS    CLOUDY    52  46  82 NW6       30.07S
SILVER BAY     CLOUDY    48  46  93 CALM      30.08R
GRAND MARAIS     N/A     50  49  96 NW8       30.04F
G MARAIS ARPRT CLOUDY    45  43  93 NW3       30.06R
$$
MNZ029>031-032-039>041-046>048-054>057-064-261200-
   West Central Minnesota

CITY           SKY/WX    TMP DP  RH WIND       PRES   REMARKS
FERGUS FALLS   CLEAR     45  43  93 CALM      30.21R
WHEATON        CLEAR     45  43  93 CALM      30.24S
MORRIS         CLEAR     45  43  93 NW5       30.21R
ALEXANDRIA     CLEAR     46  44  93 N3        30.21S
ELBOW LAKE     FAIR      45  44  95 CALM      30.22R
WADENA         CLEAR     43  41  93 W3        30.20R
GLENWOOD       CLEAR     46  45  93 N3        30.21R
APPLETON       CLEAR     46  43  87 NW3       30.20S
BENSON         CLEAR     43  43 100 CALM      30.22S FOG
ORTONVILLE     CLEAR     48  43  81 NW6       30.21S
MADISON        CLEAR     48  48 100 NW5       30.21R
WILLMAR        FAIR      48  45  87 N3        30.21R
$$
MNZ033>034-036-042>043-049>051-058-059-261200-
   Central Minnesota

CITY           SKY/WX    TMP DP  RH WIND       PRES   REMARKS
ST CLOUD       CLEAR     42  42 100 NW5       30.18S
SAUK CENTRE    FAIR      42  40  95 NW3       30.20S
PAYNESVILLE    CLEAR     41  42 100 CALM      30.20S
AITKIN         CLEAR     43  39  87 CALM      30.15S
PINE RIVER     CLEAR     39  39 100 CALM      30.21R
BRAINERD       CLEAR     46  43  89 NW3       30.18R
STAPLES        CLEAR     41  39  93 W3        30.19S
LONG PRAIRIE   FAIR      43  41  93 W3        30.20S
LITTLE FALLS   CLEAR     37  36  93 CALM      30.19R FOG
LITCHFIELD     CLEAR     48  45  87 NW3       30.19S
BUFFALO        CLEAR     49  43  80 NW6       30.19R
MAPLE LAKE     CLEAR     49  45  87 NW5       30.19S
HUTCHINSON     PTCLDY    47  46  94 NW6       30.19S
$$
MNZ037-044-045-052-053-261200-
   East Central Minnesota

CITY           SKY/WX    TMP DP  RH WIND       PRES   REMARKS
PRINCETON      CLEAR     39  37  93 CALM      30.18R
MORA           CLEAR     43  41  93 CALM      30.18R
CAMBRIDGE      CLEAR     46  39  76 CALM      30.15S
RUSH CITY      FLURRIES  43  41  93 CALM      30.16S
MOOSE LAKE     CLEAR     43  41  93 CALM      30.13S
HINCKLEY       FAIR      41  41 100 NW3       30.16R
CLOQUET        CLEAR     43  41  93 W6        30.13R
MCGREGOR       CLEAR     45  43  93 NW3       30.16S
$$
MNZ071>073-080-081-089-090-097-098-261200-
   Southwest Minnesota

CITY           SKY/WX    TMP DP  RH WIND       PRES   REMARKS
MONTEVIDEO     CLEAR     46  43  87 N3        30.21R
GRANITE FALLS  CLEAR     45  43  94 W3        30.22R
CANBY          CLEAR     46  44  91 CALM      30.22S
MARSHALL       CLEAR     45  43  93 NW7       30.21R
REDWOOD FALLS  CLEAR     47  44  90 NW6       30.19R
OLIVIA         CLEAR     46  45  93 N5        30.19R
PIPESTONE      CLEAR     52  46  82 N3        30.20S
WINDOM         CLEAR     48  45  87 CALM      30.20R
WORTHINGTON    CLEAR     49  46  90 N3        30.21R
JACKSON        CLEAR     48  46  93 CALM      30.20S
TRACY          CLEAR     50  46  88 NW6       30.21S
SLAYTON        CLEAR     47  46  95 CALM      30.22R
$$
MNZ065>067-074>077-082>085-091>093-261200-
   South Central Minnesota

CITY           SKY/WX    TMP DP  RH WIND       PRES   REMARKS
MANKATO        CLEAR     50  46  86 NW5       30.18S
NEW ULM        CLEAR     46  45  93 NW5       30.18S
ST JAMES       CLEAR     48  45  87 W6        30.20R
FAIRMONT       CLEAR     52  48  86 NW8       30.19S
GLENCOE        CLEAR     47  47 100 NW3       30.18R
FARIBAULT      CLEAR     50  46  87 NW3       30.17S
OWATONNA       CLEAR     46  45  93 CALM      30.17S
WASECA         CLEAR     45  43  93 CALM      30.19R
ALBERT LEA     MOCLDY    52  46  82 NW3       30.18R
$$
MNZ078>079-086>088-094>096-261200-
   Southeast Minnesota

CITY           SKY/WX    TMP DP  RH WIND       PRES   REMARKS
ROCHESTER      PTCLDY    47  45  93 W7        30.16S
RED WING       CLEAR     46  43  87 NW3       30.15R
STANTON        CLEAR     47  44  91 CALM      30.15S
DODGE CENTER   CLEAR     46  45  93 W5        30.17R
WINONA         CLEAR     48  46  93 CALM      30.15R
AUSTIN         MOCLDY    52  46  82 NW6       30.17S
PRESTON        MOCLDY    49  46  87 NW7       30.16S
$$
ABBREVIATIONS USED IN REMARKS
   TC - TEMPERATURES IN CELSIUS
  WCI - WIND CHILL INDEX
   HX - HEAT INDEX
  VSB - VISIBILITY
$$




USA.gov is the U.S. government's official web portal to all federal, state and local government web resources and services.